Location: Chimay
(50.0486°N, 4.3171°E)
Time: 10:39:25
(UTC+00:00)

USA 32 - Pass Details

Date: 08 August 2020
Orbit: 778 x 782 km, 85.0° (Epoch: 20 September)

Event Time Altitude Azimuth Distance (km) Brightness Sun altitude
Exits shadow 20:53:02 14° 171° (S) 2,053 5.7 -13.7°
Maximum altitude 20:57:28 65° 92° (E) 863 4.1 -14.2°
Drops below altitude 10° 21:02:40 10° 12° (NNE) 2,346 7.0 -14.7°
Sets 21:05:03 0° 9° (N) 3,278 7.9 -15.0°
